SL-14 DEB, 45332

Orbit data source: Space-Track

SL-14 DEB, 45332 is space debris in LEO originally from a launch on Thu, 15 Aug 1991 UTC launched from the Plesetsk Missile And Space Complex (PKMTR). Debris objects in space refer to the collection of defunct objects orbiting the Earth. Examples of debris include non-operational satellites, rocket bodies, and fragments generated from explosions, collisions, or faulty payload assembly.

Loading next visibility...
Identifier
45332, 1991-056BW
Orbit
LEO
Last TLE update
9 hours ago
Origin
Manufacturer
Unknown
Mission
Spacecraft
Bus & Motor
Unknown
Mass
Unknown
Launch date (UTC)
1991-08-15 (34 years ago)
Launch vehicle
Unknown
Launch site
Plesetsk Missile And Space Complex (PKMTR)
Object type
Payload
Rocket body
Debris
Shape & HBR
Unknown
Radar Cross Section
Small (<0.1 m²)

Expand to show TLE details & history

TLE from 9 hours ago
0 SL-14 DEB
1 45332U 91056BW  25189.95755132  .00000111  00000-0  26658-3 0  9993
2 45332  82.5516  32.0892 0108571 332.4713  27.0681 13.13000689256429
Epoch: 2025-07-08T22:58Z
TLE epoch observation values (Epoch: 2025-07-08T22:58:52.434Z)
Latitude
-0.00004°
Longitude
120.22564°
Altitude
1,141.174 km
Speed
7.317 km/s
True Right ascension
02h 08m 21s
True Declination
0° 00' 00"
Sunlit
Object was in daylight at epoch
Visualization orbit readout
Latitude
-77.29299°
Longitude
-24.79708°
Altitude
1,212.997 km
Speed
7.26 km/s
Apparent Right ascension
09h 00m 55s
Apparent Declination
-70° 38' 52"
Sunlit
Object is in daylight
Visualization observer readout
Local Sidereal Time
19:46:56
Azimuth
191.387° SSW
Elevation
-57.826°
Doppler factor
1
Orbital elements
Apogee altitude
1,291.196 km
Perigee altitude
1,126.451 km
Semi-major axis
7,586.96 km
Eccentricity
0.01086
Inclination
82.5516°
RAAN
32.0892°
Arg. of periapsis
332.4713°
True anomaly
Unknown
Mean anomaly
27.0681°
Eccentric anomaly
Unknown
Mean motion
3.28429 °/min
Orbital period
109.61 mins
BSTAR
0.00026658
Loading maneuver chart data...
Loading SW <> Apogee altitude chart data...
Loading historical data...
Loading historical data...
Loading historical data...
Loading historical data...
Loading historical data...
Loading historical data...
Loading historical data...

SL-14 DEB Visibility forecast

Observer location: undefined°, undefined°

Span
Click to sort rows by Start time (UTC) header in descending order
Start Az.
Max El. time (UTC)
Max El. Az.
Max El.
End time (UTC)
End Az.
13 mins2025-07-09 13:42:24.776Z164.424° S2025-07-09 13:48:24.776Z98.899° ESE39.01°2025-07-09 13:55:24.776Z17.256° NNE
10 mins2025-07-09 15:35:24.776Z245.369° WSW2025-07-09 15:39:24.776Z287.702° WNW24.01°2025-07-09 15:45:24.776Z344.481° N
6 mins2025-07-09 23:23:24.776Z42.211° NE2025-07-09 23:25:24.776Z58.605° ENE13.87°2025-07-09 23:29:24.776Z90.613° ESE
14 mins2025-07-10 01:11:24.776Z356.16° N2025-07-10 01:17:24.776Z59.106° ENE44.349°2025-07-10 01:25:24.776Z168.938° S
8 mins2025-07-10 03:03:24.776Z313.448° NW2025-07-10 03:07:24.776Z278.699° WNW18.077°2025-07-10 03:11:24.776Z244.674° WSW
|